Weather History for Hot Springs, VA

Change the Weather History Date:

Tuesday, December 18, 2012

  Actual Average Record
Temperature  
Mean Temperature 34 °F -  
Max Temperature 41 °F 35 °F 59 °F (2006)
Min Temperature 28 °F 21 °F 8 °F (2000)
Degree Days  
Heating Degree Days 30    
Moisture  
Dew Point 34 °F    
Average Humidity 95    
Maximum Humidity 100    
Minimum Humidity 81    
Precipitation  
Precipitation 0.00 in - - ()
Sea Level Pressure  
Sea Level Pressure 29.70 in    
Wind  
Wind Speed 19 mph (West)    
Max Wind Speed 28 mph    
Max Gust Speed 39 mph    
Visibility 9 miles    
Events Fog , Rain , Snow    
Averages and records for this station are not official NWS values.
T = Trace of Precipitation, MM = Missing Value Source: NWS Daily Summary

Daily Weather History Graph

Daily Weather History Graph

Search for Another Location

Airport:

Trip Planner

Search our weather history database for the weather conditions in past years. The results will help you decide how hot, cold, wet, or windy it might be!

Date:

Astronomy

Dec. 18, 2012 Rise Set
Actual Time 7:30 AM EST 5:02 PM EST
Civil Twilight 7:00 AM EST 5:31 PM EST
Nautical Twilight 6:27 AM EST 6:04 PM EST
Astronomical Twilight 5:55 AM EST 6:36 PM EST
Moon 11:14 AM EST (12/18) 11:20 PM EST (12/18)
Length of Visible Light 10h 31m
Length of Day
9h 32m
Waxing Crescent, 34% of the Moon is Illuminated
Dec 18
Waxing Crescent
Dec 20
First Quarter
Dec 28
Full
Jan 4
Last Quarter
Jan 11
New

Hourly Weather History & Observations

Time (EST) Temp. Windchill Dew Point Humidity Pressure Visibility Wind Dir Wind Speed Gust Speed Precip Events Conditions
12:15 AM 41.0 °F 33.1 °F 39.2 °F 93% 29.60 in 10.0 mi West 15.0 mph - N/A   Scattered Clouds
12:35 AM 39.2 °F 29.3 °F 39.2 °F 100% 29.62 in 10.0 mi West 20.7 mph 27.6 mph N/A   Scattered Clouds
12:55 AM 39.2 °F 29.0 °F 39.2 °F 100% 29.62 in 10.0 mi West 21.9 mph 27.6 mph N/A   Scattered Clouds
1:15 AM 39.2 °F 29.3 °F 39.2 °F 100% 29.61 in 10.0 mi West 20.7 mph 26.5 mph N/A   Scattered Clouds
1:35 AM 39.2 °F 30.2 °F 39.2 °F 100% 29.61 in 10.0 mi West 17.3 mph 25.3 mph N/A   Scattered Clouds
1:55 AM 39.2 °F 29.8 °F 39.2 °F 100% 29.61 in 10.0 mi West 18.4 mph 24.2 mph N/A   Mostly Cloudy
2:15 AM 39.2 °F 29.8 °F 39.2 °F 100% 29.61 in 10.0 mi West 18.4 mph 24.2 mph N/A   Overcast
2:35 AM 39.2 °F 29.8 °F 39.2 °F 100% 29.61 in 10.0 mi West 18.4 mph 25.3 mph N/A   Overcast
2:55 AM 39.2 °F 29.3 °F 39.2 °F 100% 29.62 in 10.0 mi West 20.7 mph 29.9 mph N/A   Overcast
3:15 AM 39.2 °F 28.7 °F 39.2 °F 100% 29.62 in 10.0 mi West 23.0 mph 29.9 mph N/A   Overcast
3:35 AM 39.2 °F 29.3 °F 39.2 °F 100% 29.62 in 10.0 mi West 20.7 mph 26.5 mph N/A   Overcast
3:55 AM 39.2 °F 30.2 °F 39.2 °F 100% 29.62 in 10.0 mi West 17.3 mph 26.5 mph N/A   Overcast
4:15 AM 39.2 °F 30.2 °F 39.2 °F 100% 29.61 in 10.0 mi West 17.3 mph 26.5 mph N/A   Overcast
4:35 AM 39.2 °F 29.8 °F 37.4 °F 93% 29.61 in 10.0 mi West 18.4 mph - N/A   Overcast
4:55 AM 37.4 °F 27.5 °F 37.4 °F 100% 29.60 in 10.0 mi West 18.4 mph 24.2 mph N/A   Overcast
5:15 AM 37.4 °F 27.5 °F 37.4 °F 100% 29.60 in 10.0 mi West 18.4 mph 23.0 mph N/A   Mostly Cloudy
5:35 AM 39.2 °F 30.5 °F 37.4 °F 93% 29.61 in 10.0 mi West 16.1 mph 20.7 mph N/A   Mostly Cloudy
6:15 AM 39.2 °F 30.5 °F 37.4 °F 93% 29.62 in 10.0 mi West 16.1 mph - N/A   Overcast
6:35 AM 39.2 °F 30.8 °F 37.4 °F 93% 29.62 in 7.0 mi West 15.0 mph 20.7 mph N/A   Overcast
6:55 AM 37.4 °F 28.2 °F 37.4 °F 100% 29.63 in 0.5 mi West 16.1 mph 24.2 mph N/A Rain Light Rain
7:15 AM 37.4 °F 28.2 °F 37.4 °F 100% 29.62 in 0.2 mi West 16.1 mph 25.3 mph N/A Rain Light Rain
7:35 AM 37.4 °F 28.2 °F 37.4 °F 100% 29.63 in 0.2 mi West 16.1 mph 24.2 mph N/A Rain Light Rain
7:55 AM 37.4 °F 26.9 °F 37.4 °F 100% 29.64 in 0.2 mi West 20.7 mph 29.9 mph N/A Rain Light Rain
8:15 AM 37.4 °F 27.5 °F 37.4 °F 100% 29.64 in 0.2 mi West 18.4 mph 21.9 mph N/A Rain Light Rain
8:35 AM 37.4 °F 27.8 °F 37.4 °F 100% 29.64 in 0.2 mi West 17.3 mph 23.0 mph N/A Snow Light Snow
8:55 AM 37.4 °F 28.2 °F 37.4 °F 100% 29.65 in 0.2 mi West 16.1 mph 25.3 mph N/A Snow Light Snow
9:15 AM 37.4 °F 26.6 °F 37.4 °F 100% 29.65 in 0.2 mi West 21.9 mph 28.8 mph N/A Fog Fog
9:35 AM 37.4 °F 27.8 °F 37.4 °F 100% 29.67 in 7.0 mi West 17.3 mph 23.0 mph N/A   Overcast
9:55 AM 37.4 °F 28.5 °F 37.4 °F 100% 29.67 in 7.0 mi West 15.0 mph 23.0 mph N/A   Overcast
10:15 AM 37.4 °F 27.8 °F 37.4 °F 100% 29.68 in 2.5 mi West 17.3 mph 27.6 mph N/A   Overcast
10:35 AM 37.4 °F 27.8 °F 37.4 °F 100% 29.68 in 10.0 mi West 17.3 mph 27.6 mph N/A   Overcast
10:55 AM 35.6 °F 26.2 °F 35.6 °F 100% 29.68 in 10.0 mi West 15.0 mph 31.1 mph N/A   Overcast
11:15 AM 35.6 °F 25.9 °F 35.6 °F 100% 29.68 in 10.0 mi West 16.1 mph 25.3 mph N/A   Overcast
11:35 AM 35.6 °F 25.5 °F 35.6 °F 100% 29.68 in 10.0 mi West 17.3 mph 28.8 mph N/A   Overcast
11:55 AM 35.6 °F 25.9 °F 35.6 °F 100% 29.68 in 10.0 mi WNW 16.1 mph 29.9 mph N/A   Overcast
12:15 PM 37.4 °F 27.5 °F 35.6 °F 93% 29.67 in 10.0 mi WNW 18.4 mph 28.8 mph N/A   Overcast
12:35 PM 35.6 °F 25.2 °F 33.8 °F 93% 29.67 in 10.0 mi West 18.4 mph 32.2 mph N/A   Overcast
12:55 PM 35.6 °F 24.0 °F 33.8 °F 93% 29.67 in 10.0 mi WNW 23.0 mph 32.2 mph N/A   Overcast
1:15 PM 35.6 °F 24.2 °F 32.0 °F 87% 29.67 in 10.0 mi WNW 21.9 mph 39.1 mph N/A   Mostly Cloudy
1:35 PM 35.6 °F 23.7 °F 32.0 °F 87% 29.68 in 10.0 mi WNW 24.2 mph 32.2 mph N/A   Mostly Cloudy
1:55 PM 35.6 °F 23.0 °F 32.0 °F 87% 29.69 in 10.0 mi WNW 27.6 mph 36.8 mph N/A   Overcast
2:15 PM 35.6 °F 24.2 °F 32.0 °F 87% 29.69 in 10.0 mi WNW 21.9 mph 35.7 mph N/A   Mostly Cloudy
2:35 PM 35.6 °F 23.7 °F 30.2 °F 81% 29.70 in 10.0 mi West 24.2 mph 33.4 mph N/A   Overcast
2:55 PM 33.8 °F 21.0 °F 30.2 °F 87% 29.71 in 10.0 mi West 25.3 mph 33.4 mph N/A   Overcast
3:15 PM 33.8 °F 20.5 °F 30.2 °F 87% 29.71 in 10.0 mi WNW 27.6 mph 36.8 mph N/A   Overcast
3:35 PM 33.8 °F 21.9 °F 30.2 °F 87% 29.72 in 10.0 mi West 21.9 mph 31.1 mph N/A   Overcast
3:55 PM 33.8 °F 21.3 °F 30.2 °F 87% 29.73 in 10.0 mi West 24.2 mph 31.1 mph N/A   Overcast
4:15 PM 33.8 °F 21.3 °F 30.2 °F 87% 29.74 in 10.0 mi West 24.2 mph 33.4 mph N/A   Overcast
4:35 PM 33.8 °F 22.2 °F 30.2 °F 87% 29.74 in 10.0 mi West 20.7 mph 29.9 mph N/A   Overcast
4:55 PM 32.0 °F 20.1 °F 30.2 °F 93% 29.76 in 10.0 mi West 19.6 mph 31.1 mph N/A   Overcast
5:15 PM 32.0 °F 20.1 °F 30.2 °F 93% 29.76 in 10.0 mi West 19.6 mph 31.1 mph N/A   Overcast
5:35 PM 32.0 °F 19.2 °F 30.2 °F 93% 29.77 in 10.0 mi West 23.0 mph 28.8 mph N/A   Overcast
5:55 PM 30.2 °F 16.2 °F 30.2 °F 100% 29.78 in 10.0 mi WNW 25.3 mph 31.1 mph N/A   Overcast
6:15 PM 32.0 °F 20.5 °F 28.4 °F 87% 29.78 in 10.0 mi WNW 18.4 mph 29.9 mph N/A   Overcast
6:35 PM 32.0 °F 19.2 °F 30.2 °F 93% 29.79 in 10.0 mi West 23.0 mph 31.1 mph N/A   Overcast
6:55 PM 32.0 °F 20.1 °F 30.2 °F 93% 29.80 in 10.0 mi West 19.6 mph 29.9 mph N/A   Overcast
7:15 PM 30.2 °F 17.4 °F 30.2 °F 100% 29.81 in 10.0 mi West 20.7 mph 28.8 mph N/A   Overcast
7:35 PM 30.2 °F 15.9 °F 30.2 °F 100% 29.82 in 10.0 mi West 26.5 mph 33.4 mph N/A   Overcast
7:55 PM 30.2 °F 17.1 °F 28.4 °F 93% 29.82 in 10.0 mi West 21.9 mph 32.2 mph N/A   Overcast
8:15 PM 30.2 °F 17.1 °F 30.2 °F 100% 29.82 in 10.0 mi West 21.9 mph 31.1 mph N/A   Overcast
8:35 PM 30.2 °F 18.5 °F 28.4 °F 93% 29.81 in 10.0 mi West 17.3 mph 29.9 mph N/A   Mostly Cloudy
8:55 PM 30.2 °F 17.4 °F 28.4 °F 93% 29.82 in 10.0 mi West 20.7 mph 28.8 mph N/A   Scattered Clouds
9:15 PM 28.4 °F 15.4 °F 28.4 °F 100% 29.82 in 10.0 mi West 19.6 mph - N/A   Scattered Clouds
9:35 PM 28.4 °F 15.1 °F 28.4 °F 100% 29.81 in 10.0 mi West 20.7 mph - N/A   Clear
9:55 PM 28.4 °F 16.2 °F 28.4 °F 100% 29.81 in 10.0 mi West 17.3 mph - N/A   Clear
10:15 PM 30.2 °F 18.1 °F 28.4 °F 93% 29.82 in 10.0 mi West 18.4 mph - N/A   Clear
10:35 PM 30.2 °F 17.8 °F 28.4 °F 93% 29.82 in 10.0 mi West 19.6 mph 32.2 mph N/A   Clear
10:55 PM 30.2 °F 18.9 °F 28.4 °F 93% 29.80 in 10.0 mi West 16.1 mph 26.5 mph N/A   Scattered Clouds
11:15 PM 30.2 °F 19.8 °F 26.6 °F 86% 29.81 in 10.0 mi West 13.8 mph - N/A   Clear
11:35 PM 30.2 °F 18.1 °F 26.6 °F 86% 29.83 in 10.0 mi West 18.4 mph - N/A   Clear
11:55 PM 28.4 °F 16.2 °F 28.4 °F 100% 29.82 in 10.0 mi West 17.3 mph 21.9 mph N/A   Clear